Probability
0 0 0 0 0 0 0 0 0 0 0 0 0 0 0 0 0 0 0 0 0 0 0 0 0 0 0 0 0 0 0 0 0 0 0 0 0 0 0 0 0 0 0 0 0 0 0 0 0
0 0 0 0 0 0 0 0 0 0 0 0 0 0 0 0 0 0 0 0 0 0 0 0 0 0 0 0 0 0 0 0 0 0 0 0 0 0 0 0 0 0 0 0 0 0 0 0 0
0 0 0 0 0 0 0 0 0 0 0 0 0 0 0 0 0 0 0 0 0 0 0 0 0 0 0 0 0 0 0 0 0 0 0 0 0 0 0 0 0 0 0 0 0 0 0 0 0
0 0 0 0 0 0 0 0 0 0 0 0 0 0 0 0 0 0 0 0 0 0 0 0 0 0 0 0 0 0 0 0 0 0 0 0 0 0 0 0 0 0 0 0 0 0 0 0 0
0 0 0 0 0 0 0 0 0 0 0 0 0 0 0 0 0 0 0 0 0 0 0 0 0 0 0 0 0 0 0 0 0 0 0 0 0 0 0 0 0 0 0 0 0 0 0 0 0
0 0 0 0 0 0 0 0 0 0 0 0 0 0 0 0 0 0 0 0 0 0 0 0 0 0 0 0 0 0 0 0 0 0 0 0 0 0 0 0 0 0 0 0 0 0 0 0 0
0 0 0 0 0 0 0 0 0 0 0 0 0 0 0 0 0 0 0 0 0 0 0 0 0 0 0 0 0 0 0 0 0 0 0 0 0 0 0 0 0 0 0 0 0 0 0 0 0
0 0 0 0 0 0 0 0 0 0 0 0 0 0 0 0 0 0 0 0 0 0 0 0 0 0 0 0 0 0 0 0 0 0 0 0 0 0 0 0 0 0 0 0 0 0 0 0 0
0 0 0 0 0 0 0 0 0 0 0 0 0 0 0 0 0 0 0 0 0 0 0 0 0 0 0 0 0 0 0 0 0 0 0 0 0 0 0 0 0 0 0 0 0 0 0 0 0
0 0 0 0 0 0 0 0 0 0 0 0 0 0 0 0 0 0 0 0 0 0 0 0 0 0 0 0 0 0 0 0 0 0 0 0 0 0 0 0 0 0 0 0 0 0 0 0 0
0 0 0 0 0 0 0 0 0 0 0 0 0 0 0 0 0 0 0 0 0 0 0 0 0 0 0 0 0 0 0 0 0 0 0 0 0 0 0 0 0 0 0 0 0 0 0 0 0
0 0 0 0 0 0 0 0 0 0 0 0 0 0 0 0 0 0 0 0 0 0 0 0 0 0 0 0 0 0 0 0 0 0 0 0 0 0 0 0 0 0 0 0 0 0 0 0 0
0 0 0 0 0 0 0 0 0 0 0 0 0 0 0 0 0 0 0 0 0 0 0 0 0 0 0 0 0 0 0 0 0 0 0 0 0 0 0 0 0 0 0 0 0 0 0 0 0
0 0 0 0 0 0 0 0 0 0 0 0 0 0 0 0 0 0 0 0 0 0 0 0 0 0 0 0 0 0 0 0 0 0 0 0 0 0 0 0 0 0 0 0 0 0 0 0 0
0 0 0 0 0 0 0 0 0 0 0 0 0 0 0 0 0 0 0 0 0 0 0 0 0 0 0 0 0 0 0 0 0 0 0 0 0 0 0 0 0 0 0 0 0 0 0 0 0
0 0 0 0 0 0 0 0 0 0 0 0 0 0 0 0 0 0 0 0 0 0 0 0 0 0 0 0 0 0 0 0 0 0 0 0 0 0 0 0 0 0 0 0 0 0 0 0 0
0 0 0 0 0 0 0 0 0 0 0 0 0 0 0 0 0 0 0 0 0 0 0 0 0 0 0 0 0 0 0 0 0 0 0 0 0 0 0 0 0 0 0 0 0 0 0 0 0
0 0 0 0 0 0 0 0 0 0 0 0 0 0 0 0 0 0 0 0 0 0 0 0 0 0 0 0 0 0 0 0 0 0 0 0 0 0 0 0 0 0 0 0 0 0 0 0 0
0 0 0 0 0 0 0 0 0 0 0 0 0 0 0 0 0 0 0 0 0 0 0 0 0 0 0 0 0 0 0 0 0 0 0 0 0 0 0 0 0 0 0 0 0 0 0 0 0
0 0 0 0 0 0 0 0 0 0 0 0 0 0 0 0 0 0 0 0 0 0 0 0 0 0 0 0 0 0 0 0 0 0 0 0 0 0 0 0 0 0 0 0 0 0 0 0 0
0 0 0 0 0 0 0 0 0 0 0 0 0 0 0 0 0 0 0 0 0 0 0 0 0 0 0 0 0 0 0 0 0 0 0 0 0 0 0 0 0 0 0 0 0 0 0 0 0
0 0 0 0 0 0 0 0 0 0 0 0 0 0 0 0 0 0 0 0 0 0 0 0 0 0 0 0 0 0 0 0 0 0 0 0 0 0 0 0 0 0 0 0 0 0 0 0 0
0 0 0 0 0 0 0 0 0 0 0 0 0 0 0 0 0 0 0 0 0 0 0 0 0 0 0 0 0 0 0 0 0 0 0 0 0 0 0 0 0 0 0 0 0 0 0 0 0
0 0 0 0 0 0 0 0 0 0 0 0 0 0 0 0 0 0 0 0 0 0 0 0 0 0 0 0 0 0 0 0 0 0 0 0 0 0 0 0 0 0 0 0 0 0 0 0 0
0 0 0 0 0 0 0 0 0 0 0 0 0 0 0 0 0 0 0 0 0 0 0 0 0 0 0 0 0 0 0 0 0 0 0 0 0 0 0 0 0 0 0 0 0 0 0 0 0
0 0 0 0 0 0 0 0 0 0 0 0 0 0 0 0 0 0 0 0 0 0 0 0 0 0 0 0 0 0 0 0 0 0 0 0 0 0 0 0 0 0 0 0 0 0 0 0 0
0 0 0 0 0 0 0 0 0 0 0 0 0 0 0 0 0 0 0 0 0 0 0 0 0 0 0 0 0 0 0 0 0 0 0 0 0 0 0 0 0 0 0 0 0 0 0 0 0
0 0 0 0 0 0 0 0 0 0 0 0 0 0 0 0 0 0 0 0 0 0 0 0 0 0 0 0 0 0 0 0 0 0 0 0 0 0 0 0 0 0 0 0 0 0 0 0 0
0 0 0 0 0 0 0 0 0 0 0 0 0 0 0 0 0 0 0 0 0 0 0 0 0 0 0 0 0 0 0 0 0 0 0 0 0 0 0 0 0 0 0 0 0 0 0 0 0
0 0 0 0 0 0 0 0 0 0 0 0 0 0 0 0 0 0 0 0 0 0 0 0 0 0 0 0 0 0 0 0 0 0 0 0 0 0 0 0 0 0 0 0 0 0 0 0 0
Wind_Speed
2 2 3 3 4 3 4 1 2 2 2 1 1 3 4 5 5 5 3 6 8 13 15 16 13 15 15 14 13 12 12 12 12 12 12 11 10 9 9 9 9 10 9 9 8 8 7 7 7
2 2 2 2 4 4 1 0 2 2 2 1 3 4 5 6 4 3 2 8 10 13 14 15 13 14 15 15 13 13 12 12 12 13 13 11 9 8 7 7 7 8 8 8 7 7 7 7 7
1 2 2 2 3 3 3 1 2 2 3 4 4 5 5 4 2 1 2 10 10 12 12 12 11 14 15 14 14 13 12 12 13 14 12 11 8 7 6 6 6 7 7 7 7 6 6 7 7
2 2 1 3 5 5 5 6 5 6 3 5 4 5 5 3 1 2 4 11 12 12 12 11 10 13 13 13 13 13 13 13 14 13 12 10 8 7 6 6 6 7 7 7 7 7 7 7 7
1 2 3 4 5 4 5 6 4 5 2 4 4 5 5 3 2 1 6 12 12 13 11 12 11 11 12 13 14 13 14 14 14 12 11 10 9 8 8 8 8 7 7 7 7 8 8 8 8
2 2 3 4 3 4 5 4 4 4 3 2 4 5 4 4 3 3 7 11 11 12 11 11 11 10 11 12 13 13 14 14 13 11 11 10 10 9 9 9 9 8 8 8 9 8 8 8 8
3 2 3 3 5 4 2 2 4 3 4 4 3 5 4 4 2 3 6 9 10 10 11 11 13 13 11 10 11 12 12 11 11 11 10 10 10 10 9 9 9 9 9 9 9 9 9 9 8
1 3 3 4 5 4 2 3 4 5 5 1 4 6 5 4 4 4 5 8 9 10 12 12 12 13 14 13 12 11 11 10 10 10 9 9 9 9 8 8 9 10 10 10 9 9 9 9 8
3 4 5 5 6 4 4 5 4 3 5 5 7 9 4 4 5 6 7 9 11 12 13 13 14 14 14 14 12 12 11 11 11 10 10 11 10 10 9 10 9 11 11 11 10 9 9 8 8
5 6 7 5 5 4 4 6 5 6 10 9 9 11 6 5 7 10 12 14 16 18 18 15 15 15 14 11 11 11 11 11 12 10 12 10 9 7 8 8 8 9 10 10 10 10 8 4 4
7 9 6 7 7 5 5 7 6 8 13 14 12 11 8 10 11 13 15 15 17 17 17 17 16 15 15 11 10 8 8 9 11 13 13 10 9 7 7 6 7 9 9 8 8 7 4 3 2
7 10 9 6 4 5 7 6 7 12 18 16 14 14 12 12 14 15 16 16 14 14 17 17 17 16 16 14 11 10 9 9 9 12 14 11 8 9 8 7 8 7 6 6 5 4 5 4 4
10 8 8 10 9 10 10 15 14 20 24 21 16 14 17 17 17 15 15 15 15 16 17 17 18 18 16 15 12 12 12 11 12 11 13 14 10 10 10 8 7 8 6 6 5 5 6 5 4
5 7 9 8 10 7 12 20 12 22 18 15 14 16 15 16 17 15 15 16 17 18 18 17 19 20 18 16 14 13 12 12 12 12 14 16 12 11 10 10 9 8 7 6 6 6 6 4 4
3 8 15 13 11 8 7 14 15 20 12 13 14 14 14 14 14 16 16 15 16 17 17 17 19 19 20 20 18 13 12 12 12 12 15 16 14 13 11 10 9 8 7 7 6 7 5 4 4
4 7 11 7 5 6 8 16 15 6 7 14 17 17 17 17 17 16 15 15 15 15 15 16 14 18 21 20 18 14 13 14 13 12 13 17 16 15 12 10 10 9 8 7 7 7 6 5 5
7 11 12 11 5 6 11 14 15 7 9 18 20 21 21 21 22 17 13 13 13 14 14 15 17 19 20 20 16 15 13 14 12 12 12 15 17 16 13 11 10 11 8 8 8 7 6 6 6
13 14 12 13 7 6 11 17 20 21 19 22 23 22 22 22 21 15 12 11 10 10 11 13 14 17 16 14 13 12 14 13 13 13 13 16 15 17 15 11 12 12 10 9 9 9 6 5 6
13 16 20 20 17 13 19 21 20 21 22 23 22 20 20 18 14 10 9 9 8 7 7 9 11 12 12 11 12 13 14 13 13 13 15 17 17 18 16 12 13 13 12 13 13 9 9 7 7
14 18 22 20 14 10 16 20 17 19 21 21 20 19 16 14 11 9 9 9 10 10 9 8 8 9 11 11 10 9 10 10 12 11 13 16 17 17 15 16 14 15 13 15 15 12 8 7 9
16 16 17 19 15 10 13 14 10 11 15 18 18 15 11 8 9 11 13 14 14 15 14 11 9 6 8 10 8 7 7 7 9 12 12 15 16 16 16 17 15 15 15 14 17 16 15 10 10
17 13 15 15 12 9 5 15 7 11 15 16 12 7 7 11 13 15 16 18 18 17 15 15 13 8 4 6 9 11 10 10 10 9 10 12 15 16 17 18 17 16 14 15 16 16 14 13 11
10 5 6 8 10 12 7 12 9 7 12 10 5 10 14 15 17 18 18 17 18 18 17 16 16 13 8 4 7 10 11 10 8 7 10 12 12 15 17 18 17 17 15 16 17 16 16 13 12
3 2 4 3 6 14 9 11 9 6 7 2 10 15 15 16 17 17 17 18 19 19 18 18 18 17 14 8 5 8 11 11 11 10 9 9 9 12 17 17 17 17 15 17 16 17 19 15 14
4 3 7 7 7 10 2 7 9 8 3 6 10 13 15 15 16 17 18 19 19 20 20 19 19 18 17 13 9 8 9 11 12 11 10 10 9 10 15 16 16 16 17 16 16 16 17 18 17
5 7 8 8 11 14 4 11 7 3 5 10 12 12 13 15 14 15 16 16 16 17 17 18 18 18 18 16 13 10 9 7 8 10 11 11 10 11 13 16 17 18 18 17 16 15 17 16 17
6 7 6 5 7 14 15 10 6 3 5 10 11 12 13 12 13 13 13 14 14 14 15 16 16 16 16 16 15 13 11 9 10 11 11 10 11 10 13 15 16 17 18 18 17 14 17 16 17
6 3 3 6 8 13 18 22 16 8 4 7 9 10 10 10 11 11 11 12 12 12 13 14 15 15 15 15 14 11 12 12 11 10 11 12 13 13 13 14 16 17 17 18 18 16 17 18 17
9 7 10 9 8 10 15 16 1 7 7 6 6 6 7 8 9 9 10 10 11 12 13 13 14 15 15 15 14 14 13 13 12 10 11 11 12 13 14 14 15 16 17 18 18 19 18 20 19
17 19 18 15 16 14 15 16 5 9 7 6 4 4 5 7 8 8 9 10 11 12 13 13 14 14 14 14 13 13 13 13 13 12 12 12 12 12 13 14 15 16 17 18 19 20 20 21 21
Wind_Direction
18 343 278 258 255 252 270 281 281 290 268 296 189 232 263 274 291 337 61 168 172 166 169 172 179 176 175 172 168 166 166 164 159 150 139 133 129 126 120 113 111 108 102 96 90 85 81 77 70
17 304 255 265 269 270 287 187 258 303 333 265 212 231 250 256 266 303 162 172 179 171 172 177 174 178 177 176 175 175 177 176 168 155 144 139 139 140 138 129 119 114 108 102 95 89 83 76 71
113 334 284 246 259 294 352 57 319 307 267 237 235 235 264 268 207 237 106 164 177 175 179 177 176 182 181 180 180 183 186 184 170 156 148 145 151 159 158 150 137 123 117 110 103 97 88 79 72
217 177 205 251 261 271 280 307 313 293 237 219 255 244 235 247 269 55 138 166 173 175 182 179 185 188 186 185 186 188 188 178 163 156 152 152 164 172 171 165 148 133 127 121 116 108 98 87 77
201 220 229 250 268 269 268 296 287 272 250 199 233 263 256 161 141 140 165 170 176 175 184 185 185 192 191 190 188 185 179 170 164 162 159 163 175 181 180 174 159 149 142 136 128 119 110 99 89
158 212 247 280 287 282 272 263 265 260 257 221 230 260 265 130 186 171 174 177 182 180 185 188 183 190 187 185 182 178 174 171 171 172 171 175 182 186 185 178 170 163 155 145 135 127 118 110 101
208 219 257 275 287 283 256 207 244 268 257 234 223 252 256 163 141 156 177 181 188 189 192 194 191 189 186 183 180 179 177 176 177 180 180 179 181 186 184 180 176 170 160 148 139 132 124 116 107
237 219 218 236 250 262 215 210 240 254 281 186 217 244 260 109 112 148 167 188 197 200 203 200 200 197 195 193 187 185 182 180 180 184 180 172 173 182 177 178 179 173 161 151 145 136 126 116 107
210 226 232 226 225 240 211 230 225 238 258 231 226 247 302 105 147 166 177 197 206 210 210 207 205 205 204 202 196 195 190 186 183 185 171 171 188 188 182 186 180 172 161 155 149 138 125 117 108
207 231 236 220 219 242 228 243 266 252 260 253 240 238 217 199 203 206 204 205 207 210 208 208 209 207 207 205 203 206 204 201 198 197 187 189 190 187 186 175 181 164 156 158 151 136 130 140 130
217 237 244 233 232 249 257 256 246 252 267 262 261 267 230 219 224 226 225 222 218 214 206 208 210 209 208 205 205 204 202 204 202 199 191 186 183 181 187 179 172 166 164 164 149 148 161 160 141
231 245 248 254 219 226 246 258 248 240 258 278 283 284 275 248 236 230 232 230 227 221 214 209 207 209 209 207 205 204 201 200 198 196 191 186 185 187 186 186 180 174 172 164 161 160 158 151 141
232 257 251 251 249 254 262 258 267 263 264 275 279 272 265 264 258 248 242 243 235 229 222 214 208 209 208 208 208 207 205 202 200 196 194 194 191 190 187 186 183 181 173 172 168 166 162 159 154
260 264 273 265 252 242 248 265 259 263 270 278 273 268 266 262 262 259 244 240 235 232 227 216 211 210 208 208 210 209 208 204 202 199 198 197 196 192 189 187 187 184 179 173 171 167 166 166 163
294 285 280 258 242 242 233 261 242 258 281 280 279 279 279 271 264 255 250 244 239 236 232 222 216 212 211 211 212 211 209 206 205 202 201 198 198 194 190 189 190 187 177 168 164 165 169 169 170
262 259 271 261 212 199 204 260 271 287 280 284 291 292 290 285 274 265 261 256 250 243 236 228 216 214 214 213 213 211 209 207 207 204 201 200 200 194 191 190 191 182 175 174 170 170 172 177 179
232 256 262 279 222 190 219 263 288 308 288 287 289 289 288 286 284 283 279 269 260 250 242 232 220 217 216 215 215 214 211 210 210 207 203 201 199 196 192 192 187 178 178 180 175 177 179 179 175
256 255 262 270 278 225 243 266 284 289 286 282 281 280 279 279 285 301 309 300 279 263 250 240 227 222 218 215 217 217 216 214 213 211 207 201 199 196 195 192 185 179 179 181 181 176 179 176 159
280 278 277 277 278 278 275 279 283 287 284 278 275 273 273 279 296 318 325 323 312 294 270 254 240 226 214 210 210 213 216 214 214 214 210 206 202 198 198 192 186 184 186 185 181 171 174 173 163
260 270 276 281 282 275 281 284 280 268 267 270 276 280 286 300 319 343 353 359 353 343 330 305 272 241 219 214 212 219 225 225 221 217 215 212 208 203 201 196 189 189 189 187 185 179 177 173 186
251 258 274 283 301 276 290 282 251 251 259 266 268 275 295 324 353 14 23 23 18 10 359 347 327 286 241 224 217 214 225 236 223 219 217 214 212 209 208 205 197 195 193 191 190 189 184 183 190
266 264 269 280 287 287 316 298 259 242 263 268 280 313 15 40 42 37 30 27 23 16 12 9 2 347 298 234 221 218 221 227 230 226 223 217 213 214 212 211 206 201 200 197 194 194 195 190 188
254 305 275 271 272 280 245 268 294 217 252 269 328 36 49 50 46 39 34 30 28 23 20 18 18 15 357 289 238 233 239 247 251 240 228 220 213 216 217 216 211 207 205 203 196 194 198 198 196
240 299 275 244 263 273 265 242 291 212 235 308 52 52 49 47 45 41 36 33 30 27 25 24 24 22 13 353 299 261 256 258 258 251 240 226 216 215 218 220 217 214 210 207 201 198 200 202 204
179 252 289 277 254 273 121 237 263 245 308 31 54 55 50 45 43 37 32 30 28 25 25 25 26 23 17 10 351 318 289 275 266 261 252 240 227 219 217 217 219 218 215 211 205 202 204 205 206
198 215 235 267 279 288 259 254 259 273 59 73 70 63 53 47 42 39 34 31 28 26 23 24 25 22 18 15 6 350 326 299 282 273 264 253 242 233 224 218 221 222 219 215 209 209 208 208 210
190 216 242 247 273 279 268 257 264 218 110 74 64 55 48 42 37 34 31 29 26 25 24 22 22 21 19 15 11 4 352 330 307 292 277 267 257 248 234 224 223 224 223 219 214 216 212 210 211
236 231 183 218 240 253 266 271 267 224 163 72 54 46 41 33 30 28 26 24 23 21 20 21 21 18 15 13 13 7 3 351 332 312 294 279 269 259 246 234 227 225 224 221 219 221 218 215 213
228 217 225 234 227 246 262 267 341 131 119 100 73 53 38 31 27 24 21 19 18 18 17 16 15 13 10 8 5 5 5 360 351 336 318 301 285 271 255 243 233 228 225 222 222 222 221 218 217
250 243 237 241 241 239 251 260 105 118 116 111 98 68 43 29 24 20 17 14 13 12 11 10 9 8 4 360 358 359 359 358 355 348 336 321 303 286 268 254 244 235 228 224 224 225 225 221 220